N7QNM-13 Weather Reports


time (UTC)temp
C
wind
direction
speed
KPH
gust
KPH
rain 1hr
cm
rain 24hr
cm
rain mn
cm
humidity
%
barometer
mb
20260905094132 12 194 1.6 3.2 0.13 0.13 0.13 85 1016.1
20260905093110 12 0.0 0.0 0.13 0.13 0.13 85 1016.1
20260905092152 12 0.0 0.0 0.13 0.13 0.13 85 1016.1
20260905091110 12 68 0.0 1.6 0.10 0.10 0.10 84 1016.1
20260905090111 12 117 3.2 3.2 0.05 0.05 0.05 84 1016.0
20260905085153 12 0.0 0.0 0.00 0.00 0.00 84 1015.9
20260905084111 11 0.0 0.0 0.00 0.00 0.00 84 1015.9
20260905083111 11 262 1.6 3.2 0.00 0.00 0.00 84 1015.8
20260905082213 11 0.0 0.0 0.00 0.00 0.00 83 1015.7
20260905081113 11 0.0 0.0 0.00 0.00 0.00 83 1015.7
20260905080113 11 0.0 0.0 0.00 0.00 0.00 83 1015.7
20260905075113 11 186 0.0 1.6 0.00 0.00 0.00 83 1015.6
20260905074113 11 0.0 0.0 0.00 0.00 0.00 82 1015.4
20260905073112 11 204 1.6 3.2 0.00 0.00 0.00 82 1015.4
20260905072113 11 0.0 0.0 0.00 0.00 0.00 81 1015.4
20260905071112 11 0.0 0.0 0.00 0.00 0.00 80 1015.3
20260905070132 11 0.0 0.0 0.00 0.00 0.00 80 1015.3
20260905065112 11 0.0 0.0 0.00 0.00 0.00 79 1015.2
20260905064112 11 192 0.0 3.2 0.00 0.00 0.00 77 1015.1
20260905063112 11 29 1.6 3.2 0.00 0.00 0.00 76 1014.9
20260905062113 12 0.0 0.0 0.00 0.00 0.00 75 1014.9
20260905061113 12 0.0 0.0 0.00 0.00 0.00 74 1014.8
20260905060112 12 0.0 0.0 0.00 0.00 0.00 72 1014.8
20260905055113 13 7 0.0 3.2 0.00 0.00 0.00 71 1014.8
20260905054113 13 0.0 0.0 0.00 0.00 0.00 70 1014.8
20260905053113 13 0.0 0.0 0.00 0.00 0.00 70 1014.8
20260905052113 14 180 0.0 1.6 0.00 0.00 0.00 69 1014.8
20260905051113 14 308 3.2 4.8 0.00 0.00 0.00 69 1014.8
20260905050114 14 220 3.2 9.7 0.00 0.00 0.00 68 1014.8
20260905045113 14 196 1.6 3.2 0.00 0.00 0.00 67 1014.9
20260905044114 15 254 1.6 3.2 0.00 0.00 0.00 66 1014.9
20260905043114 15 198 1.6 4.8 0.00 0.00 0.00 64 1014.9
20260905042115 15 186 0.0 3.2 0.00 0.00 0.00 64 1014.9
20260905041114 15 256 4.8 9.7 0.00 0.00 0.00 63 1015.0
20260905040114 16 261 3.2 6.4 0.00 0.00 0.00 63 1014.9
20260905035114 16 265 4.8 6.4 0.00 0.00 0.00 62 1014.8
20260905034115 16 258 6.4 11.3 0.00 0.00 0.00 62 1014.8
20260905033136 16 258 6.4 11.3 0.00 0.00 0.00 61 1014.8
20260905032116 16 248 4.8 8.0 0.00 0.00 0.00 61 1014.8
20260905031116 16 244 4.8 8.0 0.00 0.00 0.00 60 1014.7
20260905030115 16 197 3.2 4.8 0.00 0.00 0.00 59 1014.6
20260905025115 16 234 4.8 6.4 0.00 0.00 0.00 57 1014.4
20260905024115 16 264 4.8 8.0 0.00 0.00 0.00 56 1014.3
20260905023116 16 254 6.4 9.7 0.00 0.00 0.00 55 1014.3
20260905022115 16 256 8.0 9.7 0.00 0.00 0.00 57 1014.2
20260905021135 17 254 4.8 8.0 0.00 0.00 0.00 58 1014.1
20260905020117 17 263 6.4 9.7 0.00 0.00 0.00 57 1014.0
20260905015116 18 270 8.0 14.5 0.00 0.00 0.00 57 1013.9
20260905014136 18 260 12.9 17.7 0.00 0.00 0.00 55 1013.7
20260905013116 20 269 12.9 24.1 0.00 0.00 0.00 51 1013.5
20260905012116 21 270 3.2 4.8 0.00 0.00 0.00 44 1013.2
20260905011118 22 87 1.6 3.2 0.00 0.00 0.00 42 1013.0
20260905010116 22 53 6.4 9.7 0.00 0.00 0.00 38 1012.9
20260905005018 23 354 6.4 9.7 0.00 0.00 0.00 39 1012.9
20260905004118 22 338 4.8 8.0 0.00 0.00 0.00 40 1012.8
20260905003116 22 19 6.4 11.3 0.00 0.00 0.00 41 1012.8
20260905002118 22 83 9.7 11.3 0.00 0.00 0.00 39 1012.7
20260905001117 22 76 8.0 11.3 0.00 0.00 0.00 39 1012.7
20260905000017 21 54 4.8 6.4 0.00 0.00 0.00 44 1012.7
20260904235017 22 10 4.8 8.0 0.00 0.00 0.00 41 1012.6
20260904234017 22 37 8.0 9.7 0.00 0.00 0.00 42 1012.6
20260904233119 23 9 8.0 11.3 0.00 0.00 0.00 40 1012.6
20260904232118 22 65 9.7 16.1 0.00 0.00 0.00 40 1012.6
20260904231139 21 35 4.8 6.4 0.00 0.00 0.00 42 1012.7
20260904230019 22 50 3.2 8.0 0.00 0.00 0.00 43 1012.7
20260904225018 22 59 6.4 11.3 0.00 0.00 0.00 42 1012.7
20260904224020 22 78 6.4 12.9 0.00 0.00 0.00 42 1012.7
20260904223018 23 41 8.0 11.3 0.00 0.00 0.00 41 1012.7
20260904222018 23 68 4.8 11.3 0.00 0.00 0.00 41 1012.8
20260904221019 22 47 9.7 16.1 0.00 0.00 0.00 42 1012.8
20260904220020 22 80 4.8 8.0 0.00 0.00 0.00 42 1012.8
20260904215019 22 10 11.3 19.3 0.00 0.00 0.00 42 1012.8
20260904214019 22 356 6.4 9.7 0.00 0.00 0.00 42 1012.8
20260904213020 22 41 8.0 12.9 0.00 0.00 0.00 43 1012.7
20260904212019 22 61 6.4 11.3 0.00 0.00 0.00 43 1012.7
20260904211019 22 40 8.0 12.9 0.00 0.00 0.00 42 1012.7
20260904210019 22 36 6.4 11.3 0.00 0.00 0.00 43 1012.7
20260904205101 22 28 9.7 17.7 0.00 0.00 0.00 44 1012.7
20260904204019 22 39 8.0 12.9 0.00 0.00 0.00 42 1012.8
20260904203020 21 37 8.0 12.9 0.00 0.00 0.00 45 1012.9
20260904202020 21 41 8.0 11.3 0.00 0.00 0.00 46 1013.0
20260904201020 20 50 6.4 9.7 0.00 0.00 0.00 48 1013.0
20260904200020 20 5 4.8 6.4 0.00 0.00 0.00 48 1013.0
20260904195020 21 43 6.4 12.9 0.00 0.00 0.00 47 1013.1
20260904194022 20 43 8.0 11.3 0.00 0.00 0.00 48 1013.1
20260904193020 21 56 4.8 12.9 0.00 0.00 0.00 48 1013.2
20260904192022 20 351 4.8 8.0 0.00 0.00 0.00 48 1013.3
20260904191020 20 59 3.2 4.8 0.00 0.00 0.00 48 1013.4
20260904190022 20 19 8.0 11.3 0.00 0.00 0.00 49 1013.5
20260904185021 20 11 3.2 4.8 0.00 0.00 0.00 47 1013.7
20260904184021 21 46 3.2 6.4 0.00 0.00 0.00 45 1013.6
20260904183021 21 41 4.8 9.7 0.00 0.00 0.00 44 1013.6
20260904182021 21 270 4.8 6.4 0.00 0.00 0.00 43 1013.5
20260904181023 21 274 3.2 4.8 0.00 0.00 0.00 43 1013.4
20260904180043 21 66 3.2 8.0 0.00 0.00 0.00 45 1013.4
20260904175022 20 300 6.4 9.7 0.00 0.00 0.00 47 1013.2
20260904174021 20 336 6.4 8.0 0.00 0.00 0.00 46 1013.2
20260904173022 20 284 4.8 8.0 0.00 0.00 0.00 47 1013.2
20260904172044 20 291 1.6 4.8 0.00 0.00 0.00 50 1013.2
20260904171023 18 307 4.8 6.4 0.00 0.00 0.00 54 1013.4
20260904170022 17 280 3.2 6.4 0.00 0.00 0.00 56 1013.3
20260904165024 17 270 4.8 6.4 0.00 0.00 0.00 58 1013.3
20260904164022 17 300 6.4 9.7 0.00 0.00 0.00 60 1013.4
20260904163023 16 279 4.8 8.0 0.00 0.00 0.00 62 1013.4
20260904162023 16 261 6.4 9.7 0.00 0.00 0.00 63 1013.4
20260904161022 15 257 4.8 8.0 0.00 0.00 0.00 66 1013.4
20260904160023 14 262 4.8 8.0 0.00 0.00 0.00 72 1013.4
20260904155024 12 296 3.2 4.8 0.00 0.00 0.00 78 1013.3
20260904154025 12 272 4.8 6.4 0.00 0.00 0.00 81 1013.4
20260904153023 11 296 3.2 4.8 0.00 0.00 0.00 84 1013.3
20260904152025 11 0.0 0.0 0.00 0.00 0.00 86 1013.2
20260904151025 11 319 1.6 3.2 0.00 0.00 0.00 88 1013.2
20260904150023 11 257 3.2 3.2 0.00 0.00 0.00 89 1013.1
20260904145023 11 276 1.6 3.2 0.00 0.00 0.00 90 1013.2
20260904144045 11 270 3.2 6.4 0.00 0.00 0.00 91 1013.1
20260904143024 10 263 3.2 8.0 0.00 0.00 0.00 92 1013.0
20260904142025 10 270 0.0 3.2 0.00 0.00 0.00 92 1012.8
20260904141024 10 266 3.2 4.8 0.00 0.00 0.00 92 1012.7
20260904140026 9 235 3.2 4.8 0.00 0.00 0.00 92 1012.4
20260904135024 8 0.0 0.0 0.00 0.00 0.00 91 1012.3
20260904134026 8 0.0 0.0 0.00 0.00 0.00 91 1012.1
20260904133024 8 0.0 0.0 0.00 0.00 0.00 91 1011.9
20260904132045 8 0.0 0.0 0.00 0.00 0.00 91 1011.9
20260904131026 8 0.0 0.0 0.00 0.00 0.00 91 1011.8
20260904130026 8 0.0 0.0 0.00 0.00 0.00 91 1011.7
20260904125026 8 0.0 0.0 0.00 0.00 0.00 90 1011.6
20260904124025 8 0.0 0.0 0.00 0.00 0.00 90 1011.5
20260904123027 8 0.0 0.0 0.00 0.00 0.00 90 1011.5
20260904122025 8 0.0 0.0 0.00 0.00 0.00 90 1011.3
20260904121026 8 0.0 0.0 0.00 0.00 0.00 90 1011.3
20260904120027 8 0.0 0.0 0.00 0.00 0.00 90 1011.2
20260904115026 8 0.0 0.0 0.00 0.00 0.00 90 1011.1
20260904114026 8 0.0 0.0 0.00 0.00 0.00 89 1011.1
20260904113026 8 0.0 0.0 0.00 0.00 0.00 89 1011.0
20260904112028 8 0.0 0.0 0.00 0.00 0.00 89 1011.0
20260904111026 8 0.0 0.0 0.00 0.00 0.00 89 1010.9
20260904110026 7 0.0 0.0 0.00 0.00 0.00 88 1010.8
20260904105028 7 0.0 0.0 0.00 0.00 0.00 88 1010.7
20260904104028 7 0.0 0.0 0.00 0.00 0.00 88 1010.6
20260904103028 7 0.0 0.0 0.00 0.00 0.00 87 1010.6
20260904102026 7 0.0 0.0 0.00 0.00 0.00 87 1010.4
20260904101048 7 0.0 0.0 0.00 0.00 0.00 86 1010.3
20260904100027 7 0.0 0.0 0.00 0.00 0.00 86 1010.2
20260904095049 7 0.0 0.0 0.00 0.00 0.00 85 1010.1